Weather in Bolshoy Kityak

Russia / Kirov Oblast     56°20′29″N   50°44′31″E
temp.,
°C
wind,
m/s
gust,
m/s
humid.,
%
clouds,
%
prec.,
mm/h
press.,
hPa
HPBL,
m
14 april, wed
wed1400:00+9s339047 0.0 103139
03:00+8ssw33905 0.0 103121
06:00+8ssw22865 0.0 103127
09:00+14ssw356935 0.0 1030295
12:00+17s45547 0.0 1029822
15:00+18s45485 0.0 1027996
18:00+14s35685 0.0 102670
21:00+11s35815 0.0 102563
15 april, thu
thu1500:00+10s35885 0.0 102477
03:00+8s22880 0.0 102425
06:00+8s36915 0.0 1023133
09:00+14ssw46685 0.0 1022506
12:00+17ssw46530 0.0 10201302
15:00+18sw454547 0.0 10191751
18:00+15sw22550 0.0 101914
21:00+12w11632 0.0 101910
16 april, fri
fri1600:00+9nne48915 0.0 1020167
03:00+8ne71088100 0.0 1021486
06:00+6ne7118598 0.0 1023584
09:00+6ne7107798 0.0 1025602
12:00+9ene686097 0.0 1025811
15:00+11ne574696 0.0 10251090
18:00+9ne59495 0.0 1026247
21:00+5ne48650 0.0 1027167
17 april, sat
sat1700:00+2nne36720 0.0 1028117
03:00+1nne36740 0.0 102887
06:00+2nne39705 0.0 1029242
09:00+7ne56450 0.0 1029798
12:00+10nne56380 0.0 10281360
15:00+11nne56385 0.0 10271571
18:00+9n37545 0.0 1027149
21:00+5n33655 0.0 102733
18 april, sun
sun1800:00+4n36740 0.0 1027101
03:00+2n35790 0.0 102875
06:00+3nnw38771 0.0 1028233
09:00+8n57595 0.0 1027919
12:00+10n674786 0.0 10271759
15:00+8nne775788 0.0 10291244
18:00+6ne585051 0.0 1030506
21:00+2ene411510 0.0 1032422